Location: ??????
(36.0418°N, 43.6351°E)
Time: 04:19:50
(UTC+00:00)

Cosmos 2237 Rocket - Pass Details

Date: 07 March 2021
Orbit: 835 x 849 km, 71.0° (Epoch: 20 April)

Event Time Altitude Azimuth Distance (km) Brightness Sun altitude
Rises 02:51:42 0° 343° (NNW) 3,413 5.2 -8.1°
Reaches altitude 10° 02:54:13 10° 348° (NNW) 2,472 4.5 -7.6°
Maximum altitude 02:59:47 55° 65° (ENE) 1,007 3.1 -6.5°
Drops below altitude 10° 03:05:17 10° 143° (SE) 2,449 5.2 -5.3°
Sets 03:07:46 0° 148° (SSE) 3,378 5.9 -4.8°
